#timestamp,LO_Frequency,Hit,StdDev 
1519714815.1,286046997.9,N
1519714816.0,286046997.9,N
1519714835.8,286046997.2,Y
1519714855.6,286046999.3,P
1519714875.5,286046998.3,P
1519714895.3,286046998.5,P
1519714915.2,286047000.6,N
1519714935.9,286047000.9,N
1519714955.7,286047000.7,N
1519714975.6,286046999.9,N
1519714995.4,286046999.9,N
1519715015.2,286046998.6,N
1519715035.1,286046998.2,N
1519715036.0,286046998.2,N
1519715055.8,286047000.9,N
1519715075.7,286046998.1,N
1519715095.5,286047000.8,N
1519715115.3,286046996.5,Y
1519715135.2,286046998.4,P
1519715155.0,286046998.7,N
1519715155.9,286046998.7,P
1519715175.8,286046998.3,Y
1519715195.6,286047000.7,P
1519715215.4,286047000.1,N
1519715235.3,286047000.7,N
1519715255.1,286047001.0,N
1519715275.8,286047000.6,N
1519715295.7,286047001.0,N
1519715315.5,286046998.7,N
1519715335.4,286046998.7,N
1519715355.2,286046996.5,Y
1519715375.0,286046996.7,P
1519715375.9,286046996.7,N
1519715395.8,286046997.2,N
1519715415.6,286046997.0,N
1519715435.4,286046999.0,N
1519715455.3,286046998.8,N
1519715475.1,286046999.1,N
1519715495.9,286046998.9,N
1519715515.7,286046998.9,N
1519715535.5,286046999.5,N
1519715555.4,286046997.0,N
1519715575.2,286046999.2,N
1519715595.0,286046998.7,N
1519715596.0,286046998.7,N
1519715615.8,286046998.9,N
1519715635.6,286046999.5,N
1519715655.5,286046999.6,N
1519715675.3,286046997.4,N
1519715695.1,286046996.7,Y
1519715715.9,286047001.2,P
1519715735.7,286047000.9,N
1519715755.6,286047000.9,N
1519715775.4,286047000.9,N
1519715795.2,286047001.2,N
1519715815.1,286047000.8,N
1519715816.0,286047000.8,N
1519715835.8,286047001.2,N
1519715855.3,286047000.8,N
1519715875.2,286046998.1,N
1519715895.0,286047000.7,N
1519715895.9,286047000.7,N
1519715915.8,286046998.3,N
1519715935.6,286046998.4,N
1519715955.4,286046999.3,N
1519715975.3,286047000.6,N
1519715995.1,286047000.5,N
1519716015.9,286046998.5,N
1519716035.7,286046999.6,N
1519716055.5,286046997.3,N
1519716075.4,286046997.6,N
1519716095.2,286046997.6,N
1519716115.0,286046997.5,N
1519716116.0,286046997.5,N
1519716135.8,286046998.0,N
1519716155.6,286046997.4,N
1519716175.5,286046999.3,N
1519716195.3,286046999.1,N
1519716215.1,286046998.4,N
1519716235.9,286047000.5,N
1519716255.7,286047000.2,N
1519716275.5,286047000.0,N
1519716295.4,286047000.5,N
1519716315.2,286047000.1,N
1519716335.1,286047002.7,N
1519716336.0,286047002.7,N
1519716355.8,286046999.8,N
1519716375.6,286047002.8,N
1519716395.5,286047000.4,N
1519716415.3,286046999.1,N
1519716435.2,286046999.3,N
1519716455.9,286046999.6,N
1519716475.7,286046998.6,N
1519716495.6,286046998.7,N
1519716515.4,286046998.3,N
1519716535.2,286046999.2,N
1519716555.1,286046999.4,N
1519716556.0,286046999.4,N
1519716575.8,286046998.9,N
1519716595.7,286046999.4,N
1519716615.5,286046998.3,N
1519716635.3,286047000.8,N
1519716655.2,286047000.7,N
1519716675.0,286047001.2,N
1519716675.9,286047001.2,N
1519716695.8,286047000.6,N
1519716715.6,286047001.0,N
1519716735.4,286046998.9,N
1519716755.3,286046998.4,N
1519716775.1,286047000.7,N
1519716795.9,286047000.6,N
1519716815.7,286047000.5,N
1519716835.5,286047000.6,N
1519716855.4,286047000.9,N
1519716875.2,286046999.9,N
1519716895.1,286047002.7,N
1519716896.0,286047002.7,N
1519716915.8,286047001.8,N
1519716935.6,286047002.4,N
1519716955.5,286047004.4,Y
1519716975.6,286047003.9,P
1519716995.5,286047001.7,N
1519717015.3,286047000.2,N
1519717035.2,286047002.5,N
1519717055.0,286047002.7,N
1519717055.9,286047002.7,N
1519717075.8,286047004.1,Y
1519717095.6,286047002.0,P
1519717115.4,286047001.9,P
1519717135.3,286047001.8,P
1519717155.1,286047002.3,Y
1519717175.8,286046998.6,P
1519717195.7,286046998.4,N
1519717215.5,286046999.3,N
1519717235.4,286046999.5,N
1519717255.2,286046999.3,N
1519717275.0,286046999.0,N
1519717275.9,286046999.0,N
1519717295.8,286046997.2,N
1519717315.6,286046997.0,N
1519717335.5,286046999.4,N
1519717355.3,286046999.2,N
1519717375.1,286046998.7,N
1519717395.9,286047000.3,N
1519717415.7,286047000.1,N
1519717435.5,286047000.5,N
1519717455.4,286046999.9,N
1519717475.2,286046999.7,N
1519717495.1,286046999.7,N
1519717496.0,286046999.7,N
1519717515.8,286047000.7,N
1519717535.6,286047000.5,N
1519717555.5,286047000.2,N
1519717575.3,286047000.4,N
1519717595.1,286047002.6,N
1519717615.9,286047001.5,N
1519717635.7,286047002.2,N
1519717655.6,286047001.9,N
1519717675.4,286047001.4,N
1519717695.2,286047002.3,N
1519717715.1,286047000.1,N
1519717716.0,286047000.1,N
1519717735.8,286047002.6,N
1519717755.7,286047002.8,N
1519717775.5,286047000.4,N
1519717795.3,286047002.4,N
1519717815.2,286047000.0,N
1519717835.0,286046999.8,N
1519717835.9,286046999.8,N
1519717855.8,286047000.5,N
1519717875.6,286047000.6,N
1519717895.4,286047002.4,N
1519717915.3,286047000.3,N
1519717935.1,286047001.8,N
1519717955.8,286047001.7,N
1519717975.7,286047004.4,Y
1519717995.5,286047001.5,P
1519718015.4,286047004.0,P
1519718035.2,286047001.5,N
1519718055.1,286047001.4,N
1519718056.0,286047001.4,N
1519718075.8,286047001.8,N
1519718095.6,286047004.4,Y
1519718115.5,286047000.1,P
1519718135.3,286046999.7,N
1519718155.1,286046998.1,N
1519718175.9,286046998.1,N
1519718195.7,286047001.1,N
1519718215.6,286047000.3,N
1519718235.4,286047000.5,N
1519718255.2,286046998.3,N
1519718275.1,286046998.1,N
1519718276.0,286046998.1,N
1519718295.8,286047000.7,N
1519718315.3,286047001.0,N
1519718335.1,286047000.5,N
1519718355.9,286047000.0,N
1519718375.7,286047001.0,N
1519718395.5,286047000.7,N
